Regional Weather Roundup
Issued by NWS

Home | Current Version | Previous Version | Graphics & Text | Print | Product List | Glossary On
Versions: 1 2 3 4 5 6 7 8 9 10 11 12 13 14 15 16 17 18 19 20 21 22 23 24 25 26 27 28 29 30 31 32 33 34 35 36 37 38 39 40 41 42 43 44 45 46 47 48 49 50
000
ASUS43 KOAX 291702
RWRNE

WEATHER ROUNDUP FOR NEBRASKA
NATIONAL WEATHER SERVICE OMAHA NE
1200 PM CDT WED MAR 29 2017

NOTES: SATELLITE DATA IS BEING USED TO AUGMENT CLOUD COVER ABOVE
       12000 FEET.
       "FAIR" INDICATES FEW OR NO CLOUDS BELOW 12,000 FEET WITH NO
       SIGNIFICANT WEATHER AND/OR OBSTRUCTIONS TO VISIBILITY.

  * THESE STATIONS DO NOT REPORT WEATHER SUCH AS RAIN...SNOW OR FOG.

NEZ001>004-019>022-054>056-291800-
NEBRASKA PANHANDLE

CITY           SKY/WX    TMP DP  RH WIND       PRES   REMARKS
SCOTTSBLUFF    CLOUDY    46  40  79 W7        30.10F
ALLIANCE       CLOUDY    44  38  79 N6        30.09F
CHADRON        CLOUDY    48  40  73 CALM      30.10F
KIMBALL        CLOUDY    43  41  93 N14       30.10F
SIDNEY         CLOUDY    44  39  82 N13       30.09F
$$

NEZ057>060-069>072-079>082-291800-
SOUTHWEST NEBRASKA

CITY           SKY/WX    TMP DP  RH WIND       PRES   REMARKS
NORTH PLATTE   CLOUDY    45  40  82 N16G25    30.03F
IMPERIAL       CLOUDY    44  40  85 N21       30.04F
LEXINGTON      CLOUDY    44  41  89 N20G25    29.99F
MCCOOK         CLOUDY    44  43  96 N22       29.98F FOG
OGALLALA       CLOUDY    45  41  85 N14       30.07F
$$

NEZ005>010-023>029-035>040-094-291800-
NORTH CENTRAL NEBRASKA

CITY           SKY/WX    TMP DP  RH WIND       PRES   REMARKS
VALENTINE      CLOUDY    48  40  73 NE12      30.10F
AINSWORTH      CLOUDY    46  43  90 NE14      30.09S
BROKEN BOW     CLOUDY    44  39  82 N15G25    30.02S
O`NEILL        LGT RAIN  45  43  93 NE13      30.08S
ORD            LGT RAIN  44  40  85 NE16      30.01F
THEDFORD       CLOUDY    46  42  85 N16       30.07F
$$

NEZ041-046>049-061>064-073>077-083>087-291800-
SOUTH CENTRAL NEBRASKA

CITY           SKY/WX    TMP DP  RH WIND       PRES   REMARKS
GRAND ISLAND   CLOUDY    44  44 100 NE20G26   29.96F
AURORA         DRIZZLE   44  43  99 NE23G31   29.94F
HASTINGS       LGT RAIN  44  42  93 NE18G30   29.94F
HEBRON         RAIN      45  44  97 NE17G24   29.87F
HOLDREGE       LGT RAIN  43  42  95 N21G26    29.95F
KEARNEY *      CLOUDY    43  39  87 N21G26    29.97F
YORK           RAIN      45  45 100 NE24G32   29.93F
$$

NEZ011>018-030>034-042>045-291800-
NORTHEAST NEBRASKA

CITY           SKY/WX    TMP DP  RH WIND       PRES   REMARKS
NORFOLK        CLOUDY    43  39  86 NE16G28   30.02F
ALBION         DRIZZLE   45  40  84 NE14G23   30.02S
BLAIR          LGT RAIN  43  41  93 NE18G26   29.94F
FREMONT        LGT RAIN  44  42  95 NE13G23   29.97F
TEKAMAH        LGT RAIN  45  41  86 NE18G25   29.99F FOG
WAYNE          DRIZZLE   45  44  97 NE17G23   30.04F
$$

NEZ050>053-065>068-078-088>093-291800-
SOUTHEAST NEBRASKA

CITY           SKY/WX    TMP DP  RH WIND       PRES   REMARKS
LINCOLN        RAIN      45  43  93 NE18G25   29.93F FOG
OMAHA EPPLEY   LGT RAIN  45  40  82 NE22G32   29.95F
BEATRICE       MIX PCPN  45  45  99 NE17G23   29.85F
FALLS CITY     RAIN      47  45  93 NE16      29.81F FOG
NEBRASKA CITY  LGT RAIN  42  42 100 NE21G28   29.87F
PLATTSMOUTH    LGT RAIN  43  40  89 NE18G29   29.91F
$$

NEZ044-045-051>053-067-291800-
OMAHA AREA

CITY           SKY/WX    TMP DP  RH WIND       PRES   REMARKS
OMAHA EPPLEY   LGT RAIN  45  40  82 NE22G32   29.95F
BLAIR          LGT RAIN  43  41  93 NE18G26   29.94F
FREMONT        LGT RAIN  44  42  95 NE13G23   29.97F
MILLARD        RAIN      46  43  90 N8G16     29.93F
PLATTSMOUTH    LGT RAIN  43  40  89 NE18G29   29.91F
WAHOO          LGT RAIN  44  42  93 NE20G26   29.94F
$$



USA.gov is the U.S. government's official web portal to all federal, state and local government web resources and services.